SQ5DCP-1 Weather Reports


Display with metric or nautical units.
time (UTC)temp
F
wind
direction
speed
MPH
gust
MPH
rain 1hr
in
rain 24hr
in
rain mn
in
humidity
%
barometer
mb
20190121195025 24 240 4.0 6.0 0.00 0.00 0.00 85 1019.9
20190121194525 24 231 4.0 8.0 0.00 0.00 0.00 85 1019.9
20190121194054 24 223 4.0 9.0 0.00 0.00 0.00 85 1019.9
20190121193554 24 224 3.0 6.0 0.00 0.00 0.00 85 1020.0
20190121193054 24 236 2.0 6.0 0.00 0.00 0.00 85 1020.0
20190121192553 25 240 3.0 6.0 0.00 0.00 0.00 85 1020.0
20190121192023 25 244 3.0 6.0 0.00 0.00 0.00 85 1019.9
20190121191525 25 239 4.0 8.0 0.00 0.00 0.00 85 1019.9
20190121191022 25 235 3.0 8.0 0.00 0.00 0.00 85 1019.9
20190121190522 25 241 3.0 6.0 0.00 0.00 0.00 85 1019.8
20190121190021 25 236 2.0 4.0 0.00 0.00 0.00 85 1019.9
20190121185521 25 238 2.0 5.0 0.00 0.00 0.00 85 1019.9
20190121185051 25 233 3.0 8.0 0.00 0.00 0.00 85 1019.9
20190121184520 25 238 4.0 8.0 0.00 0.00 0.00 85 1019.9
20190121184050 25 238 2.0 5.0 0.00 0.00 0.00 85 1020.0
20190121183549 25 221 1.0 4.0 0.00 0.00 0.00 85 1020.0
20190121183049 25 224 1.0 4.0 0.00 0.00 0.00 85 1020.1
20190121182549 25 242 2.0 5.0 0.00 0.00 0.00 85 1020.1
20190121182018 25 247 2.0 5.0 0.00 0.00 0.00 85 1020.1
20190121181518 26 250 2.0 4.0 0.00 0.00 0.00 85 1020.1
20190121181048 26 232 2.0 5.0 0.00 0.00 0.00 85 1020.1
20190121180517 26 235 3.0 6.0 0.00 0.00 0.00 85 1020.2
20190121180047 26 240 4.0 6.0 0.00 0.00 0.00 85 1020.2
20190121175546 26 229 3.0 6.0 0.00 0.00 0.00 85 1020.3
20190121175046 26 238 2.0 4.0 0.00 0.00 0.00 85 1020.3
20190121174546 26 240 2.0 5.0 0.00 0.00 0.00 85 1020.3
20190121174045 26 246 1.0 2.0 0.00 0.00 0.00 85 1020.3
20190121173545 26 256 2.0 6.0 0.00 0.00 0.00 85 1020.3
20190121173044 26 253 2.0 4.0 0.00 0.00 0.00 85 1020.3
20190121172544 26 253 2.0 4.0 0.00 0.00 0.00 84 1020.4
20190121172044 26 259 2.0 5.0 0.00 0.00 0.00 84 1020.4
20190121171543 26 267 2.0 5.0 0.00 0.00 0.00 84 1020.4
20190121171043 26 266 3.0 5.0 0.00 0.00 0.00 84 1020.4
20190121170543 26 256 2.0 5.0 0.00 0.00 0.00 84 1020.4
20190121170042 26 254 2.0 5.0 0.00 0.00 0.00 84 1020.3
20190121165542 26 235 2.0 4.0 0.00 0.00 0.00 84 1020.3
20190121165041 26 244 1.0 4.0 0.00 0.00 0.00 84 1020.3
20190121164541 26 254 1.0 4.0 0.00 0.00 0.00 84 1020.3
20190121164040 26 265 1.0 4.0 0.00 0.00 0.00 84 1020.3
20190121163540 26 254 1.0 2.0 0.00 0.00 0.00 84 1020.3
20190121163039 26 256 1.0 2.0 0.00 0.00 0.00 84 1020.3
20190121162539 26 263 1.0 2.0 0.00 0.00 0.00 84 1020.3
20190121162039 27 262 2.0 5.0 0.00 0.00 0.00 84 1020.3
20190121161538 27 252 2.0 5.0 0.00 0.00 0.00 85 1020.4
20190121161038 27 264 2.0 4.0 0.00 0.00 0.00 85 1020.4
20190121160538 27 258 2.0 4.0 0.00 0.00 0.00 85 1020.4
20190121160037 27 264 1.0 4.0 0.00 0.00 0.00 85 1020.4
20190121155537 27 258 2.0 4.0 0.00 0.00 0.00 85 1020.4
20190121155036 27 259 3.0 6.0 0.00 0.00 0.00 85 1020.4
20190121154536 27 262 4.0 6.0 0.00 0.00 0.00 85 1020.4
20190121154036 27 268 3.0 6.0 0.00 0.00 0.00 85 1020.4
20190121153535 28 265 2.0 5.0 0.00 0.00 0.00 85 1020.4
20190121153035 28 265 2.0 4.0 0.00 0.00 0.00 85 1020.4
20190121152534 28 270 3.0 8.0 0.00 0.00 0.00 85 1020.4
20190121152034 28 273 4.0 6.0 0.00 0.00 0.00 86 1020.4
20190121151533 28 264 4.0 8.0 0.00 0.00 0.00 86 1020.5
20190121151033 28 271 3.0 6.0 0.00 0.00 0.00 86 1020.5
20190121150603 28 271 2.0 4.0 0.00 0.00 0.00 86 1020.4
20190121150032 28 268 3.0 6.0 0.00 0.00 0.00 86 1020.5
20190121145532 28 272 3.0 6.0 0.00 0.00 0.00 86 1020.4
20190121145031 28 255 3.0 6.0 0.00 0.00 0.00 86 1020.4
20190121144531 28 262 2.0 6.0 0.00 0.00 0.00 86 1020.4
20190121144031 28 276 2.0 5.0 0.00 0.00 0.00 86 1020.4
20190121143530 28 280 3.0 5.0 0.00 0.00 0.00 86 1020.4
20190121143030 28 265 3.0 5.0 0.00 0.00 0.00 86 1020.4
20190121142530 28 274 2.0 4.0 0.00 0.00 0.00 86 1020.4
20190121142029 28 276 3.0 6.0 0.00 0.00 0.00 86 1020.4
20190121141529 28 261 3.0 6.0 0.00 0.00 0.00 86 1020.4
20190121141029 28 262 3.0 5.0 0.00 0.00 0.00 86 1020.4
20190121140529 28 276 3.0 5.0 0.00 0.00 0.00 86 1020.4
20190121140028 28 276 3.0 6.0 0.00 0.00 0.00 86 1020.5
20190121135527 28 274 3.0 6.0 0.00 0.00 0.00 86 1020.5
20190121135027 28 262 3.0 6.0 0.00 0.00 0.00 86 1020.6
20190121134526 28 273 2.0 5.0 0.00 0.00 0.00 86 1020.6
20190121134026 28 270 3.0 6.0 0.00 0.00 0.00 86 1020.6
20190121133526 28 289 2.0 5.0 0.00 0.00 0.00 86 1020.7
20190121133025 28 279 2.0 5.0 0.00 0.00 0.00 86 1020.7
20190121132525 28 269 4.0 6.0 0.00 0.00 0.00 86 1020.7
20190121132025 28 272 2.0 5.0 0.00 0.00 0.00 86 1020.7
20190121131524 28 260 3.0 6.0 0.00 0.00 0.00 86 1020.7
20190121131024 28 271 3.0 8.0 0.00 0.00 0.00 86 1020.7
20190121130553 28 268 3.0 5.0 0.00 0.00 0.00 86 1020.7
20190121130053 28 269 3.0 5.0 0.00 0.00 0.00 86 1020.7
20190121125553 28 283 3.0 5.0 0.00 0.00 0.00 86 1020.7
20190121125022 28 278 2.0 5.0 0.00 0.00 0.00 86 1020.7
20190121124522 28 261 3.0 6.0 0.00 0.00 0.00 86 1020.7
20190121124021 28 269 4.0 6.0 0.00 0.00 0.00 86 1020.8
20190121123521 28 275 4.0 6.0 0.00 0.00 0.00 86 1020.8
20190121123021 28 263 3.0 5.0 0.00 0.00 0.00 86 1020.8
20190121122621 28 265 3.0 6.0 0.00 0.00 0.00 86 1020.8
20190121122050 28 271 3.0 5.0 0.00 0.00 0.00 86 1020.9
20190121121550 28 268 3.0 6.0 0.00 0.00 0.00 86 1020.9
20190121121049 28 265 3.0 6.0 0.00 0.00 0.00 86 1021.0
20190121120549 28 276 3.0 5.0 0.00 0.00 0.00 86 1021.0
20190121120049 28 275 2.0 6.0 0.00 0.00 0.00 86 1021.1
20190121115548 28 268 4.0 8.0 0.00 0.00 0.00 85 1021.0
20190121115048 28 260 4.0 8.0 0.00 0.00 0.00 85 1021.0
20190121114517 28 266 4.0 8.0 0.00 0.00 0.00 85 1021.0
20190121114017 28 257 5.0 9.0 0.00 0.00 0.00 85 1021.1
20190121113546 28 266 4.0 9.0 0.00 0.00 0.00 85 1021.1
20190121113046 28 266 4.0 8.0 0.00 0.00 0.00 85 1021.1
20190121112546 28 264 4.0 9.0 0.00 0.00 0.00 85 1021.0
20190121112045 28 256 4.0 9.0 0.00 0.00 0.00 85 1021.0
20190121111545 28 257 4.0 10.0 0.00 0.00 0.00 85 1021.1
20190121111044 28 260 4.0 8.0 0.00 0.00 0.00 85 1021.2
20190121110544 28 254 5.0 9.0 0.00 0.00 0.00 85 1021.2
20190121110043 28 257 2.0 5.0 0.00 0.00 0.00 85 1021.2
20190121105543 28 267 3.0 5.0 0.00 0.00 0.00 85 1021.2
20190121105043 28 262 3.0 6.0 0.00 0.00 0.00 85 1021.3
20190121104542 27 259 4.0 6.0 0.00 0.00 0.00 85 1021.3
20190121104042 27 263 3.0 5.0 0.00 0.00 0.00 85 1021.4
20190121103541 27 263 3.0 5.0 0.00 0.00 0.00 85 1021.4
20190121103041 27 250 2.0 6.0 0.00 0.00 0.00 85 1021.3
20190121102540 27 264 3.0 6.0 0.00 0.00 0.00 85 1021.3
20190121102040 27 255 4.0 8.0 0.00 0.00 0.00 85 1021.3
20190121101540 27 267 4.0 6.0 0.00 0.00 0.00 85 1021.3
20190121101039 27 263 3.0 6.0 0.00 0.00 0.00 85 1021.3
20190121100539 27 257 5.0 9.0 0.00 0.00 0.00 85 1021.3
20190121100038 27 276 5.0 9.0 0.00 0.00 0.00 85 1021.4
20190121095538 27 263 4.0 9.0 0.00 0.00 0.00 85 1021.4
20190121095107 27 268 4.0 8.0 0.00 0.00 0.00 85 1021.4
20190121094537 27 266 3.0 6.0 0.00 0.00 0.00 85 1021.4
20190121094036 27 272 4.0 10.0 0.00 0.00 0.00 85 1021.4
20190121093536 26 254 4.0 8.0 0.00 0.00 0.00 85 1021.4
20190121093035 26 266 4.0 8.0 0.00 0.00 0.00 85 1021.4
20190121092535 26 260 3.0 6.0 0.00 0.00 0.00 85 1021.5
20190121092035 26 264 3.0 8.0 0.00 0.00 0.00 85 1021.4
20190121091534 26 246 3.0 6.0 0.00 0.00 0.00 86 1021.4
20190121091034 26 253 4.0 6.0 0.00 0.00 0.00 86 1021.4
20190121090533 26 268 4.0 6.0 0.00 0.00 0.00 86 1021.4
20190121090033 26 261 4.0 6.0 0.00 0.00 0.00 86 1021.4
20190121085533 26 266 3.0 6.0 0.00 0.00 0.00 86 1021.3
20190121085032 26 256 3.0 6.0 0.00 0.00 0.00 86 1021.2
20190121084532 26 253 3.0 6.0 0.00 0.00 0.00 86 1021.2
20190121084032 25 258 3.0 6.0 0.00 0.00 0.00 86 1021.3
20190121083531 25 252 3.0 5.0 0.00 0.00 0.00 86 1021.3
20190121083031 25 258 3.0 6.0 0.00 0.00 0.00 86 1021.3
20190121082531 25 249 3.0 6.0 0.00 0.00 0.00 86 1021.3
20190121082030 25 259 4.0 8.0 0.00 0.00 0.00 86 1021.3
20190121081600 25 257 3.0 6.0 0.00 0.00 0.00 86 1021.3
20190121081029 25 260 3.0 5.0 0.00 0.00 0.00 86 1021.3
20190121080529 25 256 2.0 5.0 0.00 0.00 0.00 86 1021.2
20190121080028 25 260 2.0 4.0 0.00 0.00 0.00 86 1021.1
20190121075528 25 264 2.0 5.0 0.00 0.00 0.00 86 1021.2
20190121075028 25 254 1.0 4.0 0.00 0.00 0.00 86 1021.1
20190121074527 25 262 3.0 8.0 0.00 0.00 0.00 86 1020.9
20190121074027 24 264 3.0 5.0 0.00 0.00 0.00 86 1020.9
20190121073526 24 252 3.0 5.0 0.00 0.00 0.00 86 1020.9
20190121073056 24 252 3.0 8.0 0.00 0.00 0.00 86 1020.8
20190121072526 24 271 3.0 6.0 0.00 0.00 0.00 86 1020.9
20190121072025 24 253 3.0 6.0 0.00 0.00 0.00 86 1020.7
20190121071525 24 241 3.0 5.0 0.00 0.00 0.00 86 1020.6
20190121071024 24 258 3.0 5.0 0.00 0.00 0.00 86 1020.6
20190121070524 24 248 2.0 6.0 0.00 0.00 0.00 86 1020.6
20190121070023 24 254 2.0 5.0 0.00 0.00 0.00 86 1020.6
20190121065523 24 249 2.0 5.0 0.00 0.00 0.00 86 1020.6
20190121065052 24 245 2.0 4.0 0.00 0.00 0.00 86 1020.6
20190121064552 24 232 2.0 4.0 0.00 0.00 0.00 86 1020.5
20190121064051 24 245 2.0 4.0 0.00 0.00 0.00 86 1020.5
20190121063551 24 243 2.0 4.0 0.00 0.00 0.00 86 1020.4
20190121063020 23 250 2.0 5.0 0.00 0.00 0.00 86 1020.4
20190121062550 23 260 3.0 5.0 0.00 0.00 0.00 86 1020.4
20190121062050 23 244 2.0 6.0 0.00 0.00 0.00 86 1020.4
20190121061519 23 261 2.0 5.0 0.00 0.00 0.00 86 1020.4
20190121061019 23 261 3.0 6.0 0.00 0.00 0.00 86 1020.3
20190121060518 23 264 2.0 5.0 0.00 0.00 0.00 86 1020.4
20190121060048 23 255 1.0 4.0 0.00 0.00 0.00 86 1020.4
20190121055547 23 258 2.0 4.0 0.00 0.00 0.00 86 1020.4
20190121055047 23 256 1.0 4.0 0.00 0.00 0.00 86 1020.4
20190121054547 23 256 2.0 5.0 0.00 0.00 0.00 86 1020.4
20190121054046 23 264 2.0 5.0 0.00 0.00 0.00 86 1020.4
20190121053546 23 256 3.0 6.0 0.00 0.00 0.00 86 1020.4
20190121053046 23 252 2.0 5.0 0.00 0.00 0.00 86 1020.4
20190121052545 23 256 3.0 6.0 0.00 0.00 0.00 86 1020.3
20190121052045 23 257 4.0 8.0 0.00 0.00 0.00 86 1020.3
20190121051544 23 263 3.0 6.0 0.00 0.00 0.00 86 1020.3
20190121051044 23 259 3.0 6.0 0.00 0.00 0.00 86 1020.4
20190121050544 23 265 3.0 6.0 0.00 0.00 0.00 86 1020.4
20190121050043 23 269 3.0 6.0 0.00 0.00 0.00 86 1020.3
20190121045543 23 271 4.0 8.0 0.00 0.00 0.00 86 1020.2
20190121045042 23 266 4.0 8.0 0.00 0.00 0.00 86 1020.1
20190121044542 23 260 4.0 8.0 0.00 0.00 0.00 86 1020.1
20190121044042 23 267 3.0 6.0 0.00 0.00 0.00 86 1020.1
20190121043541 23 260 4.0 8.0 0.00 0.00 0.00 86 1020.1
20190121043041 23 258 3.0 6.0 0.00 0.00 0.00 86 1020.2
20190121042540 23 265 3.0 6.0 0.00 0.00 0.00 86 1020.1
20190121042040 22 274 3.0 5.0 0.00 0.00 0.00 85 1020.1
20190121041539 22 273 2.0 5.0 0.00 0.00 0.00 85 1020.1
20190121041039 22 255 3.0 5.0 0.00 0.00 0.00 85 1020.1
20190121040538 22 257 3.0 5.0 0.00 0.00 0.00 85 1020.0
20190121040038 22 254 2.0 8.0 0.00 0.00 0.00 85 1019.9
20190121035537 22 257 3.0 6.0 0.00 0.00 0.00 85 1019.9
20190121035037 22 259 3.0 5.0 0.00 0.00 0.00 85 1019.9
20190121034537 22 255 3.0 5.0 0.00 0.00 0.00 85 1019.9
20190121034036 23 258 2.0 6.0 0.00 0.00 0.00 86 1019.9
20190121033536 23 254 2.0 4.0 0.00 0.00 0.00 86 1019.9
20190121033036 23 254 2.0 5.0 0.00 0.00 0.00 86 1019.9
20190121032535 23 254 3.0 6.0 0.00 0.00 0.00 86 1020.0
20190121032035 23 252 1.0 6.0 0.00 0.00 0.00 86 1020.0
20190121031534 23 247 2.0 5.0 0.00 0.00 0.00 86 1020.0
20190121031034 23 259 2.0 5.0 0.00 0.00 0.00 86 1020.0
20190121030534 23 263 2.0 4.0 0.00 0.00 0.00 86 1020.0
20190121030033 23 268 2.0 5.0 0.00 0.00 0.00 86 1020.0
20190121025533 22 261 2.0 5.0 0.00 0.00 0.00 85 1019.9
20190121025032 22 257 2.0 4.0 0.00 0.00 0.00 85 1019.9
20190121024532 22 258 2.0 5.0 0.00 0.00 0.00 85 1019.8
20190121024032 22 258 3.0 5.0 0.00 0.00 0.00 85 1019.9
20190121023531 22 258 3.0 6.0 0.00 0.00 0.00 85 1019.8
20190121023031 22 261 3.0 5.0 0.00 0.00 0.00 85 1019.9
20190121022530 22 254 3.0 5.0 0.00 0.00 0.00 85 1019.9
20190121022030 21 257 3.0 5.0 0.00 0.00 0.00 85 1020.0
20190121021530 21 253 2.0 5.0 0.00 0.00 0.00 85 1020.1
20190121021029 21 258 3.0 6.0 0.00 0.00 0.00 85 1020.0
20190121020529 21 257 2.0 5.0 0.00 0.00 0.00 85 1020.0
20190121020028 21 258 2.0 5.0 0.00 0.00 0.00 85 1020.0
20190121015528 21 254 2.0 4.0 0.00 0.00 0.00 85 1019.9
20190121015028 21 247 2.0 5.0 0.00 0.00 0.00 85 1019.8
20190121014527 21 256 2.0 4.0 0.00 0.00 0.00 85 1019.8
20190121014027 21 248 2.0 4.0 0.00 0.00 0.00 85 1019.8
20190121013556 21 251 2.0 4.0 0.00 0.00 0.00 85 1019.8
20190121013026 21 247 1.0 2.0 0.00 0.00 0.00 85 1019.8
20190121012555 21 243 1.0 4.0 0.00 0.00 0.00 85 1019.8
20190121012025 21 252 2.0 4.0 0.00 0.00 0.00 85 1019.8
20190121011524 22 256 2.0 5.0 0.00 0.00 0.00 85 1019.8
20190121011054 22 259 2.0 4.0 0.00 0.00 0.00 85 1019.7
20190121010554 22 256 2.0 4.0 0.00 0.00 0.00 85 1019.7
20190121010053 22 248 2.0 5.0 0.00 0.00 0.00 85 1019.7
20190121005623 22 247 2.0 4.0 0.00 0.00 0.00 85 1019.7
20190121005022 22 250 2.0 5.0 0.00 0.00 0.00 85 1019.7
20190121004522 22 252 2.0 4.0 0.00 0.00 0.00 85 1019.7
20190121004022 22 250 1.0 4.0 0.00 0.00 0.00 85 1019.7
20190121003521 22 247 2.0 4.0 0.00 0.00 0.00 85 1019.7
20190121003021 22 247 1.0 4.0 0.00 0.00 0.00 85 1019.6
20190121002520 22 247 2.0 4.0 0.00 0.00 0.00 85 1019.6
20190121002050 22 243 1.0 2.0 0.00 0.00 0.00 85 1019.5
20190121001549 22 247 1.0 2.0 0.00 0.00 0.00 85 1019.5
20190121001049 23 259 1.0 4.0 0.00 0.00 0.00 86 1019.5
20190121000548 23 255 1.0 2.0 0.00 0.00 0.00 86 1019.6
20190121000018 23 265 2.0 4.0 0.00 0.00 0.00 86 1019.5
20190120235548 23 272 3.0 5.0 0.00 0.00 0.00 86 1019.5
20190120235047 23 275 2.0 4.0 0.00 0.00 0.00 86 1019.5
20190120234517 23 283 2.0 5.0 0.00 0.00 0.00 86 1019.5
20190120234016 23 261 2.0 4.0 0.00 0.00 0.00 86 1019.5
20190120233546 23 255 2.0 4.0 0.00 0.00 0.00 86 1019.5
20190120233046 23 261 2.0 4.0 0.00 0.00 0.00 86 1019.4
20190120232545 23 269 3.0 5.0 0.00 0.00 0.00 86 1019.4
20190120232045 23 261 2.0 5.0 0.00 0.00 0.00 85 1019.5
20190120231544 22 266 1.0 4.0 0.00 0.00 0.00 85 1019.4
20190120231044 22 270 2.0 4.0 0.00 0.00 0.00 85 1019.4
20190120230544 22 283 2.0 5.0 0.00 0.00 0.00 85 1019.5
20190120230043 22 279 2.0 4.0 0.00 0.00 0.00 85 1019.5
20190120225543 22 272 2.0 5.0 0.00 0.00 0.00 86 1019.5
20190120225042 22 275 2.0 4.0 0.00 0.00 0.00 86 1019.5
20190120224542 22 292 2.0 4.0 0.00 0.00 0.00 86 1019.5
20190120224042 22 285 2.0 4.0 0.00 0.00 0.00 86 1019.4
20190120223541 22 280 2.0 4.0 0.00 0.00 0.00 85 1019.4
20190120223041 22 282 2.0 4.0 0.00 0.00 0.00 85 1019.3
20190120222540 22 270 1.0 4.0 0.00 0.00 0.00 85 1019.2
20190120222040 23 270 2.0 4.0 0.00 0.00 0.00 85 1019.2
20190120221539 23 264 1.0 2.0 0.00 0.00 0.00 85 1019.1
20190120221039 23 271 1.0 2.0 0.00 0.00 0.00 85 1019.1
20190120220539 23 263 1.0 2.0 0.00 0.00 0.00 85 1019.0
20190120220038 23 271 1.0 2.0 0.00 0.00 0.00 85 1019.0
20190120215538 23 274 1.0 4.0 0.00 0.00 0.00 85 1019.0
20190120215037 23 274 2.0 4.0 0.00 0.00 0.00 85 1019.0
20190120214537 23 280 2.0 4.0 0.00 0.00 0.00 85 1019.0
20190120214036 23 271 1.0 2.0 0.00 0.00 0.00 85 1018.9
20190120213536 22 279 1.0 4.0 0.00 0.00 0.00 85 1018.9
20190120213036 22 276 1.0 2.0 0.00 0.00 0.00 85 1018.9
20190120212535 22 278 2.0 4.0 0.00 0.00 0.00 85 1018.8
20190120212035 22 270 1.0 2.0 0.00 0.00 0.00 85 1018.8
20190120211534 22 275 1.0 2.0 0.00 0.00 0.00 85 1018.7
20190120211034 22 273 1.0 4.0 0.00 0.00 0.00 85 1018.7
20190120210534 22 284 2.0 4.0 0.00 0.00 0.00 85 1018.7
20190120210033 22 269 1.0 2.0 0.00 0.00 0.00 85 1018.6
20190120205532 22 279 2.0 2.0 0.00 0.00 0.00 85 1018.5
20190120205032 21 281 2.0 4.0 0.00 0.00 0.00 85 1018.4
20190120204532 21 281 2.0 4.0 0.00 0.00 0.00 85 1018.4
20190120204031 21 272 1.0 2.0 0.00 0.00 0.00 85 1018.3
20190120203601 21 290 2.0 4.0 0.00 0.00 0.00 85 1018.3
20190120203030 21 279 1.0 4.0 0.00 0.00 0.00 85 1018.2
20190120202530 21 286 1.0 4.0 0.00 0.00 0.00 85 1018.2
20190120202030 21 291 1.0 4.0 0.00 0.00 0.00 85 1018.1
20190120201529 21 282 1.0 2.0 0.00 0.00 0.00 85 1018.0
20190120201029 21 288 1.0 2.0 0.00 0.00 0.00 85 1018.0
20190120200528 21 282 1.0 2.0 0.00 0.00 0.00 85 1017.9
20190120200028 21 290 1.0 2.0 0.00 0.00 0.00 85 1017.8
20190120195558 21 0.0 0.0 0.00 0.00 0.00 85 1017.7